sat.trackr.live / text

‹ back to catalog

STARLINK-33695

NORAD 63478 · 2025-070U

PAYLOAD ACTIVE UNKNOWN

§ Identity

Operator
Country
US
Launch date
2025-04-06
Launch site
AFETR
Launch vehicle
Mass (kg)
RCS (m²)

Purposes: comms

External: N2YO · Heavens-Above · Gunter

§ Orbital elements

Epoch: 2026-09-20T15:11:38.575104Z

Period
94.27 min
Inclination
43.0015°
Eccentricity
0.0001248
Mean motion
15.27592131 rev/d
Perigee alt
482.2 km
Apogee alt
483.9 km
Semi-major
6,861.1 km
B*
7.2934e-4
RAAN
235.1040°
Arg perigee
273.9166°
Mean anomaly
86.1543°
Rev number
8,283

§ Raw data

STARLINK-336951 63478U 25070U   26263.63308536  .00019869  00000+0  72934-3 0  99952 63478  43.0015 235.1040 0001248 273.9166  86.1543 15.27592131 82831

JSON: /api/v1/satellites/63478 · /tle

For live sub-satellite position, see the globe view (requires WebGL).

§ Visibility from observer

Set your observer location to see the next 7 days of passes ≥ 10°. The values pass through the URL so the page stays shareable.

No JS? Fill the form by hand. The geolocation button needs JavaScript.